This is the latest recevied weather packets stored in our database for station/object DL9GJ-4. If no packets are shown the sender has not sent any weather packets the latest 1 day(s).
| Time | Temp. | Humidity | Pressure | Rain* | Wind** | Luminosity | Snow |
|---|---|---|---|---|---|---|---|
| 1778030575 | 6.11° C | 52% | 1007 hPa | 0 mm | - | - | - |
| 1778029491 | 6.11° C | 51% | 1007 hPa | 0 mm | - | - | - |
| 1778029126 | 6.11° C | 50% | 1007 hPa | 0 mm | - | - | - |
| 1778028405 | 6.11° C | 50% | 1007 hPa | 0 mm | - | - | - |
| 1778028043 | 6.67° C | 50% | 1007 hPa | 0 mm | - | - | - |
| 1778027320 | 6.11° C | 49% | 1008 hPa | 0 mm | - | - | - |
| 1778026600 | 6.67° C | 49% | 1007 hPa | 0 mm | - | - | - |
| 1778026241 | 6.67° C | 49% | 1007 hPa | 0 mm | - | - | - |
| 1778023714 | 7.78° C | 48% | 1008 hPa | 0 mm | - | - | - |
| 1778022265 | 7.78° C | 47% | 1008 hPa | 0 mm | - | - | - |
| 1778020089 | 10° C | 47% | 1008 hPa | 0 mm | - | - | - |
| 1778019724 | 10° C | 47% | 1008 hPa | 0 mm | - | - | - |
| 1778015734 | 10° C | 57% | 1008 hPa | 2.79 mm | - | - | - |
| 1778008846 | 9.44° C | 64% | 1008 hPa | 2.79 mm | - | - | - |
| 1778008124 | 10° C | 61% | 1008 hPa | 3.81 mm | - | - | - |
| 1778007758 | 10° C | 58% | 1008 hPa | 3.81 mm | - | - | - |
| 1778007395 | 10° C | 56% | 1008 hPa | 3.81 mm | - | - | - |
| 1778006666 | 10.56° C | 47% | 1008 hPa | 0 mm | - | - | - |
| 1778006302 | 11.67° C | 50% | 1007 hPa | 0 mm | - | - | - |
| 1778002327 | 13.33° C | 45% | 1006 hPa | 0 mm | - | - | - |
* Rain latest hour (hover to see other rain measurements)
** Current wind speed in m/s (hover to see current wind gust speed)